When you browse on this site, cookies collect data to enhance your experience and personalize the content and advertising you see.
Visit our Privacy Policy to learn more. By continuing to use the site, you agree to this use of cookies and data.
  • In Lithuania
  • List of Countries
  • For 7 days
  • Water Temperature
  • Weather Map
  • Weather Widgets
  • user-avatar
    Login

    Hourly Weather Sydney

    Today, 22 September, Sunday

    Time Temperature Precipitation Wind Pressure Humidity
    00:00 +19°C° 0.4 mm 2 mps 762 mmHg 84%
    01:00 +19°C° 0.4 mm 3 mps 762 mmHg 85%
    02:00 +19°C° 0.2 mm 3 mps 762 mmHg 86%
    03:00 +18°C° 0.2 mm 3 mps 763 mmHg 87%
    04:00 +18°C° 0 mm 3 mps 762 mmHg 87%
    05:00 +18°C° 0.3 mm 3 mps 763 mmHg 87%
    06:00 +18°C° 0.3 mm 3 mps 763 mmHg 86%
    07:00 +18°C° 0.3 mm 3 mps 764 mmHg 86%
    08:00 +19°C° 0.2 mm 2 mps 765 mmHg 71%
    09:00 +20°C° 0.2 mm 2 mps 765 mmHg 63%
    10:00 +21°C° 0.2 mm 2 mps 766 mmHg 55%
    11:00 +24°C° 0 mm 2 mps 765 mmHg 50%
    12:00 +25°C° 0 mm 2 mps 765 mmHg 46%
    13:00 +26°C° 0 mm 3 mps 765 mmHg 41%
    14:00 +25°C° 0.1 mm 3 mps 765 mmHg 47%
    15:00 +22°C° 0.1 mm 4 mps 764 mmHg 52%
    16:00 +21°C° 0.1 mm 5 mps 764 mmHg 58%
    17:00 +20°C° 0 mm 4 mps 764 mmHg 62%
    18:00 +18°C° 0 mm 3 mps 765 mmHg 66%
    19:00 +17°C° 0 mm 2 mps 765 mmHg 70%
    20:00 +16°C° 0 mm 2 mps 766 mmHg 70%
    21:00 +16°C° 0 mm 1 mps 766 mmHg 71%
    22:00 +16°C° 0 mm 1 mps 766 mmHg 71%
    23:00 +15°C° 0 mm 2 mps 766 mmHg 68%

    Tomorrow, 23 September, Monday

    Time Temperature Precipitation Wind Pressure Humidity
    00:00 +13°C° 0 mm 3 mps 766 mmHg 66%
    01:00 +13°C° 0 mm 4 mps 766 mmHg 63%
    02:00 +12°C° 0 mm 4 mps 766 mmHg 64%
    03:00 +12°C° 0 mm 4 mps 766 mmHg 65%
    04:00 +11°C° 0 mm 4 mps 766 mmHg 66%
    05:00 +12°C° 0 mm 4 mps 766 mmHg 65%
    06:00 +12°C° 0 mm 4 mps 766 mmHg 64%
    07:00 +12°C° 0 mm 4 mps 766 mmHg 63%
    08:00 +14°C° 0 mm 4 mps 766 mmHg 53%
    09:00 +17°C° 0 mm 3 mps 766 mmHg 43%
    10:00 +19°C° 0 mm 3 mps 766 mmHg 33%
    11:00 +20°C° 0 mm 3 mps 765 mmHg 31%
    12:00 +21°C° 0 mm 4 mps 765 mmHg 29%
    13:00 +21°C° 0 mm 4 mps 764 mmHg 27%
    14:00 +21°C° 0 mm 4 mps 764 mmHg 29%
    15:00 +20°C° 0 mm 5 mps 764 mmHg 31%
    16:00 +20°C° 0 mm 6 mps 764 mmHg 33%
    17:00 +19°C° 0 mm 6 mps 765 mmHg 38%
    18:00 +16°C° 0 mm 6 mps 765 mmHg 42%
    19:00 +15°C° 0 mm 6 mps 766 mmHg 47%
    20:00 +14°C° 0 mm 5 mps 767 mmHg 50%
    21:00 +13°C° 0 mm 5 mps 767 mmHg 52%
    22:00 +12°C° 0 mm 5 mps 768 mmHg 55%
    23:00 +10°C° 0 mm 5 mps 768 mmHg 56%

    Day after tomorrow, 24 September, Tuesday

    Time Temperature Precipitation Wind Pressure Humidity
    00:00 +11°C° 0 mm 4 mps 768 mmHg 58%
    01:00 +10°C° 0 mm 4 mps 767 mmHg 59%
    02:00 +10°C° 0 mm 4 mps 768 mmHg 60%
    03:00 +9°C° 0 mm 3 mps 768 mmHg 61%
    04:00 +9°C° 0 mm 3 mps 768 mmHg 62%
    05:00 +9°C° 0 mm 3 mps 768 mmHg 60%
    06:00 +10°C° 0 mm 3 mps 769 mmHg 59%
    07:00 +10°C° 0 mm 3 mps 769 mmHg 57%
    08:00 +13°C° 0 mm 3 mps 769 mmHg 51%
    09:00 +16°C° 0 mm 2 mps 769 mmHg 44%
    10:00 +19°C° 0 mm 2 mps 768 mmHg 38%
    11:00 +20°C° 0 mm 2 mps 768 mmHg 34%
    12:00 +21°C° 0 mm 2 mps 767 mmHg 30%
    13:00 +23°C° 0 mm 2 mps 767 mmHg 26%
    14:00 +22°C° 0 mm 3 mps 767 mmHg 29%
    15:00 +22°C° 0 mm 4 mps 766 mmHg 31%
    16:00 +21°C° 0 mm 5 mps 766 mmHg 34%
    17:00 +19°C° 0 mm 4 mps 766 mmHg 47%
    18:00 +17°C° 0 mm 4 mps 767 mmHg 60%
    19:00 +14°C° 0 mm 4 mps 768 mmHg 72%
    20:00 +14°C° 0 mm 3 mps 768 mmHg 74%
    21:00 +14°C° 0 mm 2 mps 768 mmHg 75%
    22:00 +14°C° 0 mm 2 mps 768 mmHg 76%
    23:00 +13°C° 0 mm 2 mps 768 mmHg 75%

    25 September, Wednesday

    Time Temperature Precipitation Wind Pressure Humidity
    00:00 +12°C° 0 mm 2 mps 768 mmHg 74%
    01:00 +12°C° 0 mm 2 mps 768 mmHg 74%
    02:00 +10°C° 0 mm 3 mps 768 mmHg 72%
    03:00 +10°C° 0 mm 3 mps 768 mmHg 71%
    04:00 +10°C° 0 mm 4 mps 768 mmHg 70%
    05:00 +10°C° 0 mm 3 mps 768 mmHg 67%
    06:00 +10°C° 0 mm 3 mps 769 mmHg 65%
    07:00 +11°C° 0 mm 3 mps 769 mmHg 62%
    08:00 +13°C° 0 mm 3 mps 769 mmHg 56%
    09:00 +16°C° 0 mm 3 mps 769 mmHg 50%
    10:00 +19°C° 0 mm 2 mps 769 mmHg 45%
    11:00 +19°C° 0 mm 3 mps 769 mmHg 48%
    12:00 +19°C° 0 mm 4 mps 768 mmHg 50%
    13:00 +20°C° 0 mm 4 mps 768 mmHg 53%
    14:00 +19°C° 0.1 mm 4 mps 767 mmHg 56%
    15:00 +19°C° 0.1 mm 5 mps 767 mmHg 59%
    16:00 +17°C° 0.1 mm 5 mps 767 mmHg 63%
    17:00 +17°C° 0 mm 4 mps 767 mmHg 67%
    18:00 +15°C° 0 mm 4 mps 768 mmHg 72%
    19:00 +14°C° 0 mm 4 mps 769 mmHg 77%
    20:00 +14°C° 0 mm 3 mps 769 mmHg 77%
    21:00 +14°C° 0 mm 3 mps 769 mmHg 77%
    22:00 +15°C° 0 mm 2 mps 769 mmHg 77%
    23:00 +15°C° 0 mm 2 mps 769 mmHg 79%

    26 September, Thursday

    Time Temperature Precipitation Wind Pressure Humidity
    00:00 +14°C° 0 mm 2 mps 769 mmHg 80%
    01:00 +14°C° 0 mm 2 mps 769 mmHg 81%
    02:00 +14°C° 0.1 mm 1 mps 768 mmHg 83%
    03:00 +13°C° 0.1 mm 1 mps 768 mmHg 84%
    04:00 +12°C° 0.1 mm 0 mps 768 mmHg 85%
    05:00 +13°C° 0 mm 1 mps 768 mmHg 84%
    06:00 +14°C° 0 mm 1 mps 768 mmHg 83%
    07:00 +14°C° 0 mm 1 mps 768 mmHg 81%
    08:00 +16°C° 0 mm 1 mps 768 mmHg 73%
    09:00 +19°C° 0 mm 1 mps 768 mmHg 65%
    10:00 +21°C° 0 mm 1 mps 767 mmHg 56%
    11:00 +21°C° 0.1 mm 2 mps 767 mmHg 55%
    12:00 +21°C° 0.1 mm 3 mps 766 mmHg 53%
    13:00 +21°C° 0.1 mm 4 mps 765 mmHg 52%
    14:00 +21°C° 0 mm 4 mps 765 mmHg 54%
    15:00 +21°C° 0 mm 5 mps 764 mmHg 56%
    16:00 +20°C° 0 mm 5 mps 764 mmHg 59%
    17:00 +19°C° 0 mm 5 mps 764 mmHg 66%
    18:00 +17°C° 0 mm 4 mps 765 mmHg 73%
    19:00 +15°C° 0 mm 4 mps 765 mmHg 80%
    20:00 +16°C° 0.1 mm 3 mps 765 mmHg 82%
    21:00 +14°C° 0.1 mm 3 mps 765 mmHg 84%
    22:00 +14°C° 0.1 mm 3 mps 766 mmHg 86%
    23:00 +14°C° 0 mm 2 mps 765 mmHg 88%

    27 September, Friday

    Time Temperature Precipitation Wind Pressure Humidity
    00:00 +14°C° 0 mm 2 mps 765 mmHg 89%
    01:00 +14°C° 0 mm 2 mps 765 mmHg 91%
    02:00 +13°C° 0 mm 2 mps 765 mmHg 90%
    03:00 +13°C° 0 mm 2 mps 765 mmHg 90%
    04:00 +11°C° 0 mm 3 mps 764 mmHg 90%
    05:00 +11°C° 0 mm 3 mps 764 mmHg 83%
    06:00 +12°C° 0 mm 3 mps 764 mmHg 77%
    07:00 +12°C° 0 mm 3 mps 764 mmHg 70%
    08:00 +16°C° 0 mm 2 mps 764 mmHg 58%
    09:00 +18°C° 0 mm 2 mps 764 mmHg 46%
    10:00 +21°C° 0 mm 2 mps 764 mmHg 35%
    11:00 +24°C° 0 mm 2 mps 763 mmHg 30%
    12:00 +26°C° 0 mm 2 mps 763 mmHg 25%
    13:00 +27°C° 0 mm 2 mps 762 mmHg 21%
    14:00 +27°C° 0 mm 3 mps 762 mmHg 23%
    15:00 +27°C° 0 mm 3 mps 761 mmHg 24%
    16:00 +26°C° 0 mm 3 mps 761 mmHg 26%
    17:00 +24°C° 0 mm 3 mps 762 mmHg 32%
    18:00 +21°C° 0 mm 2 mps 762 mmHg 39%
    19:00 +19°C° 0 mm 2 mps 763 mmHg 45%
    20:00 +18°C° 0 mm 2 mps 763 mmHg 48%
    21:00 +18°C° 0 mm 2 mps 763 mmHg 50%
    22:00 +18°C° 0 mm 1 mps 763 mmHg 53%
    23:00 +16°C° 0 mm 2 mps 763 mmHg 55%
    Show more